Regional Weather Roundup
Issued by NWS

Home | Current Version | Previous Version | Text Only | Print | Product List | Glossary On
Versions: 1 2 3 4 5 6 7 8 9 10 11 12 13 14 15 16 17 18 19 20 21 22 23 24 25 26 27 28 29 30 31 32 33 34 35 36 37 38 39 40 41 42 43 44 45 46 47 48 49 50
000
ASUS44 KMEG 310610
RWRTN
TENNESSEE HOURLY STATE WEATHER ROUNDUP
NATIONAL WEATHER SERVICE MEMPHIS TN
100 AM CDT THU JUL 31 2014

TNZ002-004-019-021-049-052-054-088>092-310700-
WEST TENNESSEE

CITY           SKY/WX    TMP DP  RH WIND       PRES   REMARKS
MEMPHIS INTL   LGT RAIN  72  65  78 N5        30.08R
NWS MEMPHIS      N/A     70 N/A N/A MISG        N/A
JACKSON        CLOUDY    69  65  86 CALM      30.07S
DYERSBURG      CLOUDY    70  57  64 CALM      30.09R
UNION CITY     CLOUDY    64  64 100 CALM      30.07S
PARIS          PTCLDY    60  58  93 CALM      30.09S
SAVANNAH       CLOUDY    66  66 100 CALM      30.08S
$$

TNZ008-025-027-028-033-062-065-066-310700-
NORTH MIDDLE TENNESSEE

CITY           SKY/WX    TMP DP  RH WIND       PRES   REMARKS
NASHVILLE      MOCLDY    65  59  81 CALM      30.09F
DICKSON        MOCLDY    63  55  77 CALM      30.10R
PORTLAND       MOCLDY    61  57  88 CALM      30.10R
CLARKSVILLE    PTCLDY    61  58  90 CALM      30.09S
LEBANON        MOCLDY    62  57  83 CALM      30.08S
SMYRNA         MOCLDY    62  61  97 CALM      30.10S
MURFREESBORO   MOCLDY    66  63  90 CALM      30.09S
COOKEVILLE     CLEAR     61  59  94 CALM      30.10F
LIVINGSTON       N/A     63  58  83 CALM      30.12
GALLATIN       MOCLDY    62  60  93 CALM      30.11
CROSSVILLE     CLOUDY    63  58  83 CALM      30.14S
$$

TNZ061-075-076-078-094-096-097-310700-
SOUTH MIDDLE TENNESSEE

CITY           SKY/WX    TMP DP  RH WIND       PRES   REMARKS
LEWISBURG      MOCLDY    62  59  90 CALM      30.09S
TULLAHOMA      CLEAR     61  57  88 CALM      30.11S
WINCHESTER     CLEAR     61  57  88 CALM      30.10F
$$

TNZ017-018-042-046-047-310700-
NORTHEAST TENNESSEE

CITY           SKY/WX    TMP DP  RH WIND       PRES   REMARKS
TRI CITIES     MOCLDY    58  55  90 CALM      30.13F
ELIZABETHTON   CLEAR     55  54  94 CALM        N/A
$$

TNZ012-013-036-069-073-074-310700-
CENTRAL EAST TENNESSEE

CITY           SKY/WX    TMP DP  RH WIND       PRES   REMARKS
KNOXVILLE      CLOUDY    61  59  93 CALM      30.09F
OAK RIDGE      CLOUDY    63  61  93 CALM      30.12S
$$

TNZ083-085-099-310700-
SOUTHEAST TENNESSEE

CITY           SKY/WX    TMP DP  RH WIND       PRES   REMARKS
CHATTANOOGA    MOCLDY    68  60  75 CALM      30.09S
$$

SKY/WX REPORTED AS FAIR MEANS FEW OR NO CLOUDS BELOW
12 THOUSAND FEET.



USA.gov is the U.S. government's official web portal to all federal, state and local government web resources and services.